Regional Weather Roundup
Issued by NWS Sioux Falls, SD

Home | Current Version | Previous Version | Text Only | Print | Product List | Glossary On
Versions: 1 2 3 4 5 6 7 8 9 10 11 12 13 14 15 16 17 18 19 20 21 22 23 24 25 26 27 28 29 30 31 32 33 34 35 36 37 38 39 40 41 42 43 44 45 46 47 48 49 50
000
ASUS43 KFSD 301610
RWRFSD

WEATHER ROUNDUP FOR SE SOUTH DAKOTA/SW MINNESOTA/NW IOWA
NATIONAL WEATHER SERVICE SIOUX FALLS SD
1100 AM CDT WED JUL 30 2014

NOTE: "FAIR" INDICATES FEW OR NO CLOUDS BELOW 12,000 FEET WITH NO
SIGNIFICANT WEATHER AND OR OBSTRUCTIONS TO VISIBILITY.


SDZ038>040-050-052>070-301700-
SOUTHEAST SOUTH DAKOTA

CITY           SKY/WX    TMP DP  RH WIND       PRES   REMARKS
CHAMBERLAIN    MOSUNNY   76  55  49 S6        30.17S
HURON          SUNNY     74  55  51 CALM      30.16S
MADISON        FAIR      72  54  53 CALM      30.18S
MITCHELL       SUNNY     74  56  53 CALM      30.17S
SIOUX FALLS    MOSUNNY   74  56  53 N6        30.17S
WINNER         FAIR      77  52  41 VRB3      30.18S
YANKTON        SUNNY     72  57  60 CALM      30.17S
$$

MNZ071-072-080-081-089-090-097-098-301700-
SOUTHWEST MINNESOTA

CITY           SKY/WX    TMP DP  RH WIND       PRES   REMARKS
FAIRMONT       SUNNY     73  55  53 NW7       30.14S
JACKSON        SUNNY     72  55  56 VRB6      30.16S
LUVERNE        SUNNY     73  54  49 NW6       30.17S
MARSHALL       SUNNY     72  57  60 N6        30.15S
MONTEVIDEO     SUNNY     75  68  78 N5        30.15S
PIPESTONE      SUNNY     72  55  56 N3        30.17S
REDWOOD FALLS  SUNNY     74  58  57 NW6       30.14S
TRACY          SUNNY     72  59  64 NW3       30.16S
WINDOM         SUNNY     72  57  60 W8        30.15S
WORTHINGTON    SUNNY     70  55  60 N7        30.18S
$$

IAZ001>003-012>014-020>022-031-032-NEZ013-014-SDZ071-301700-
NORTHWEST IOWA

CITY           SKY/WX    TMP DP  RH WIND       PRES   REMARKS
CHEROKEE       SUNNY     72  59  63 N5        30.16S
DENISON        SUNNY     72  57  60 VRB5      30.14S
ESTHERVILLE    SUNNY     72  58  61 N8        30.15S
LE MARS        SUNNY     73  57  56 N5        30.17S
ORANGE CITY    SUNNY     73  55  53 N7        30.17S
SHELDON        SUNNY     72  57  60 VRB5      30.16R
SIOUX CITY     SUNNY     75  57  53 CALM      30.16S
SPENCER        SUNNY     74  57  55 N8        30.16S
STORM LAKE     SUNNY     72  59  64 VRB6      30.17S
$$

ABBREVIATIONS USED IN REMARKS
   TC - TEMPERATURE IN CELSIUS
  WCI - WIND CHILL INDEX
   HX - HEAT INDEX
  VSB - VISIBILITY




USA.gov is the U.S. government's official web portal to all federal, state and local government web resources and services.